{"data":{"norad_id":52487,"epoch":"2026-09-19T16:09:24.905088Z","epoch_age_seconds":134713,"freshness":"FRESH","line1":"1 52487U 22049AN  26262.67320492  .00000681  00000+0  31290-4 0  9997","line2":"2 52487  53.1596 247.2335 0001268  89.4058 270.7090 15.34387965243065","mean_motion":15.34387965,"eccentricity":0.0001268,"inclination_deg":53.1596,"raan_deg":247.2335,"arg_perigee_deg":89.4058,"mean_anomaly_deg":270.709,"bstar":3.129e-5,"rev_number":24306,"period_min":93.848494177938,"perigee_km":461.87158791898,"apogee_km":463.60643407537,"semimajor_km":6840.8760109972,"source":"CELESTRAK","updated_at":"2026-09-20T09:00:40.054733Z"}}